Year,Month,Day,Hour,Minute,Value (Times are PST for temperature in C)
2007,08,30,00,00,22.00
2007,08,30,00,01,22.00
2007,08,30,00,02,22.00
2007,08,30,00,03,22.00
2007,08,30,00,04,22.00
2007,08,30,00,05,22.10
2007,08,30,00,06,22.10
2007,08,30,00,07,22.10
2007,08,30,00,08,22.10
2007,08,30,00,09,22.10
2007,08,30,00,10,22.10
2007,08,30,00,11,22.10
2007,08,30,00,12,22.10
2007,08,30,00,13,22.10
2007,08,30,00,14,22.10
2007,08,30,00,15,22.10
2007,08,30,00,16,22.10
2007,08,30,00,17,22.10
2007,08,30,00,18,22.10
2007,08,30,00,19,22.10
2007,08,30,00,20,22.10
2007,08,30,00,21,22.00
2007,08,30,00,22,22.00
2007,08,30,00,23,22.00
2007,08,30,00,24,22.00
2007,08,30,00,25,22.00
2007,08,30,00,26,22.00
2007,08,30,00,27,22.00
2007,08,30,00,28,22.00
2007,08,30,00,29,22.00
2007,08,30,00,30,22.00
2007,08,30,00,31,22.00
2007,08,30,00,32,22.00
2007,08,30,00,33,21.90
2007,08,30,00,34,21.90
2007,08,30,00,35,21.90
2007,08,30,00,36,21.90
2007,08,30,00,37,21.90
2007,08,30,00,38,21.90
2007,08,30,00,39,21.90
2007,08,30,00,40,21.90
2007,08,30,00,41,21.90
2007,08,30,00,42,21.90
2007,08,30,00,43,21.90
2007,08,30,00,44,21.90
2007,08,30,00,45,21.80
2007,08,30,00,46,21.80
2007,08,30,00,47,21.80
2007,08,30,00,48,21.80
2007,08,30,00,49,21.80
2007,08,30,00,50,21.70
2007,08,30,00,51,21.70
2007,08,30,00,52,21.70
2007,08,30,00,53,21.70
2007,08,30,00,54,21.70
2007,08,30,00,55,21.70
2007,08,30,00,56,21.70
2007,08,30,00,57,21.70
2007,08,30,00,58,21.70
2007,08,30,00,59,21.70
2007,08,30,01,00,21.60
2007,08,30,01,01,21.60
2007,08,30,01,02,21.60
2007,08,30,01,03,21.60
2007,08,30,01,04,21.50
2007,08,30,01,05,21.40
2007,08,30,01,06,21.30
2007,08,30,01,07,21.30
2007,08,30,01,08,21.10
2007,08,30,01,09,21.00
2007,08,30,01,10,20.90
2007,08,30,01,11,20.80
2007,08,30,01,12,20.70
2007,08,30,01,13,20.50
2007,08,30,01,14,20.40
2007,08,30,01,15,20.30
2007,08,30,01,16,20.20
2007,08,30,01,17,20.10
2007,08,30,01,18,20.10
2007,08,30,01,19,19.90
2007,08,30,01,20,19.90
2007,08,30,01,21,19.90
2007,08,30,01,22,19.90
2007,08,30,01,23,19.90
2007,08,30,01,24,19.90
2007,08,30,01,25,19.90
2007,08,30,01,26,19.90
2007,08,30,01,27,19.80
2007,08,30,01,28,19.80
2007,08,30,01,29,19.80
2007,08,30,01,30,19.80
2007,08,30,01,31,19.80
2007,08,30,01,32,19.80
2007,08,30,01,33,19.70
2007,08,30,01,34,19.70
2007,08,30,01,35,19.70
2007,08,30,01,36,19.70
2007,08,30,01,37,19.60
2007,08,30,01,38,19.60
2007,08,30,01,39,19.60
2007,08,30,01,40,19.50
2007,08,30,01,41,19.40
2007,08,30,01,42,19.30
2007,08,30,01,43,19.30
2007,08,30,01,44,19.20
2007,08,30,01,45,19.20
2007,08,30,01,46,19.10
2007,08,30,01,47,19.10
2007,08,30,01,48,19.10
2007,08,30,01,49,19.00
2007,08,30,01,50,18.90
2007,08,30,01,51,18.90
2007,08,30,01,52,18.80
2007,08,30,01,53,18.70
2007,08,30,01,54,18.70
2007,08,30,01,55,18.60
2007,08,30,01,56,18.60
2007,08,30,01,57,18.50
2007,08,30,01,58,18.50
2007,08,30,01,59,18.40
2007,08,30,02,00,18.40
2007,08,30,02,01,18.30
2007,08,30,02,02,18.30
2007,08,30,02,03,18.30
2007,08,30,02,04,18.30
2007,08,30,02,05,18.20
2007,08,30,02,06,18.20
2007,08,30,02,07,18.20
2007,08,30,02,08,18.20
2007,08,30,02,09,18.20
2007,08,30,02,10,18.10
2007,08,30,02,11,18.10
2007,08,30,02,12,18.00
2007,08,30,02,13,17.90
2007,08,30,02,14,17.90
2007,08,30,02,15,17.90
2007,08,30,02,16,17.80
2007,08,30,02,17,17.70
2007,08,30,02,18,17.70
2007,08,30,02,19,17.60
2007,08,30,02,20,17.60
2007,08,30,02,21,17.50
2007,08,30,02,22,17.50
2007,08,30,02,23,17.50
2007,08,30,02,24,17.40
2007,08,30,02,25,17.40
2007,08,30,02,26,17.30
2007,08,30,02,27,17.30
2007,08,30,02,28,17.30
2007,08,30,02,29,17.30
2007,08,30,02,30,17.30
2007,08,30,02,31,17.20
2007,08,30,02,32,17.20
2007,08,30,02,33,17.20
2007,08,30,02,34,17.10
2007,08,30,02,35,17.10
2007,08,30,02,36,17.00
2007,08,30,02,37,17.00
2007,08,30,02,38,17.00
2007,08,30,02,39,16.90
2007,08,30,02,40,16.90
2007,08,30,02,41,16.80
2007,08,30,02,42,16.80
2007,08,30,02,43,16.80
2007,08,30,02,44,16.70
2007,08,30,02,45,16.70
2007,08,30,02,46,16.70
2007,08,30,02,47,16.70
2007,08,30,02,48,16.70
2007,08,30,02,49,16.60
2007,08,30,02,50,16.60
2007,08,30,02,51,16.50
2007,08,30,02,52,16.40
2007,08,30,02,53,16.40
2007,08,30,02,54,16.40
2007,08,30,02,55,16.40
2007,08,30,02,56,16.30
2007,08,30,02,57,16.30
2007,08,30,02,58,16.30
2007,08,30,02,59,16.20
2007,08,30,03,00,16.20
2007,08,30,03,01,16.20
2007,08,30,03,02,16.20
2007,08,30,03,03,16.10
2007,08,30,03,04,16.10
2007,08,30,03,05,16.10
2007,08,30,03,06,16.10
2007,08,30,03,07,16.10
2007,08,30,03,08,16.00
2007,08,30,03,09,15.90
2007,08,30,03,10,15.90
2007,08,30,03,11,15.90
2007,08,30,03,12,15.80
2007,08,30,03,13,15.80
2007,08,30,03,14,15.80
2007,08,30,03,15,15.80
2007,08,30,03,16,15.80
2007,08,30,03,17,15.80
2007,08,30,03,18,15.70
2007,08,30,03,19,15.70
2007,08,30,03,20,15.70
2007,08,30,03,21,15.70
2007,08,30,03,22,15.60
2007,08,30,03,23,15.60
2007,08,30,03,24,15.60
2007,08,30,03,25,15.50
2007,08,30,03,26,15.50
2007,08,30,03,27,15.50
2007,08,30,03,28,15.50
2007,08,30,03,29,15.50
2007,08,30,03,30,15.40
2007,08,30,03,31,15.40
2007,08,30,03,32,15.40
2007,08,30,03,33,15.40
2007,08,30,03,34,15.40
2007,08,30,03,35,15.30
2007,08,30,03,36,15.30
2007,08,30,03,37,15.30
2007,08,30,03,38,15.30
2007,08,30,03,39,15.30
2007,08,30,03,40,15.30
2007,08,30,03,41,15.30
2007,08,30,03,42,15.30
2007,08,30,03,43,15.30
2007,08,30,03,44,15.30
2007,08,30,03,45,15.20
2007,08,30,03,46,15.20
2007,08,30,03,47,15.20
2007,08,30,03,48,15.20
2007,08,30,03,49,15.20
2007,08,30,03,50,15.10
2007,08,30,03,51,15.10
2007,08,30,03,52,15.10
2007,08,30,03,53,15.10
2007,08,30,03,54,15.00
2007,08,30,03,55,15.00
2007,08,30,03,56,15.00
2007,08,30,03,57,15.00
2007,08,30,03,58,15.00
2007,08,30,03,59,14.90
2007,08,30,04,00,14.90
2007,08,30,04,01,14.90
2007,08,30,04,02,14.90
2007,08,30,04,03,14.90
2007,08,30,04,04,14.80
2007,08,30,04,05,14.80
2007,08,30,04,06,14.80
2007,08,30,04,07,14.80
2007,08,30,04,08,14.80
2007,08,30,04,09,14.80
2007,08,30,04,10,14.80
2007,08,30,04,11,14.80
2007,08,30,04,12,14.80
2007,08,30,04,13,14.70
2007,08,30,04,14,14.70
2007,08,30,04,15,14.70
2007,08,30,04,16,14.70
2007,08,30,04,17,14.70
2007,08,30,04,18,14.70
2007,08,30,04,19,14.60
2007,08,30,04,20,14.60
2007,08,30,04,21,14.60
2007,08,30,04,22,14.60
2007,08,30,04,23,14.60
2007,08,30,04,24,14.60
2007,08,30,04,25,14.60
2007,08,30,04,26,14.60
2007,08,30,04,27,14.60
2007,08,30,04,28,14.50
2007,08,30,04,29,14.50
2007,08,30,04,30,14.50
2007,08,30,04,31,14.50
2007,08,30,04,32,14.50
2007,08,30,04,33,14.50
2007,08,30,04,34,14.50
2007,08,30,04,35,14.50
2007,08,30,04,36,14.50
2007,08,30,04,37,14.50
2007,08,30,04,38,14.50
2007,08,30,04,39,14.40
2007,08,30,04,40,14.40
2007,08,30,04,41,14.40
2007,08,30,04,42,14.40
2007,08,30,04,43,14.40
2007,08,30,04,44,14.40
2007,08,30,04,45,14.40
2007,08,30,04,46,14.30
2007,08,30,04,47,14.30
2007,08,30,04,48,14.30
2007,08,30,04,49,14.30
2007,08,30,04,50,14.30
2007,08,30,04,51,14.20
2007,08,30,04,52,14.20
2007,08,30,04,53,14.20
2007,08,30,04,54,14.20
2007,08,30,04,55,14.20
2007,08,30,04,56,14.20
2007,08,30,04,57,14.20
2007,08,30,04,58,14.20
2007,08,30,04,59,14.20
2007,08,30,05,00,14.20
2007,08,30,05,01,14.20
2007,08,30,05,02,14.10
2007,08,30,05,03,14.10
2007,08,30,05,04,14.10
2007,08,30,05,05,14.10
2007,08,30,05,06,14.10
2007,08,30,05,07,14.10
2007,08,30,05,08,14.00
2007,08,30,05,09,14.00
2007,08,30,05,10,14.00
2007,08,30,05,11,14.00
2007,08,30,05,12,14.00
2007,08,30,05,13,13.90
2007,08,30,05,14,13.90
2007,08,30,05,15,13.90
2007,08,30,05,16,13.90
2007,08,30,05,17,13.90
2007,08,30,05,18,13.80
2007,08,30,05,19,13.80
2007,08,30,05,20,13.80
2007,08,30,05,21,13.80
2007,08,30,05,22,13.70
2007,08,30,05,23,13.70
2007,08,30,05,24,13.70
2007,08,30,05,25,13.70
2007,08,30,05,26,13.70
2007,08,30,05,27,13.70
2007,08,30,05,28,13.70
2007,08,30,05,29,13.70
2007,08,30,05,30,13.70
2007,08,30,05,31,13.70
2007,08,30,05,32,13.60
2007,08,30,05,33,13.60
2007,08,30,05,34,13.60
2007,08,30,05,35,13.60
2007,08,30,05,36,13.60
2007,08,30,05,37,13.50
2007,08,30,05,38,13.50
2007,08,30,05,39,13.50
2007,08,30,05,40,13.50
2007,08,30,05,41,13.50
2007,08,30,05,42,13.40
2007,08,30,05,43,13.40
2007,08,30,05,44,13.40
2007,08,30,05,45,13.40
2007,08,30,05,46,13.40
2007,08,30,05,47,13.40
2007,08,30,05,48,13.30
2007,08,30,05,49,13.30
2007,08,30,05,50,13.30
2007,08,30,05,51,13.30
2007,08,30,05,52,13.30
2007,08,30,05,53,13.30
2007,08,30,05,54,13.30
2007,08,30,05,55,13.30
2007,08,30,05,56,13.30
2007,08,30,05,57,13.30
2007,08,30,05,58,13.30
2007,08,30,05,59,13.20
2007,08,30,06,00,13.20
2007,08,30,06,01,13.20
2007,08,30,06,02,13.20
2007,08,30,06,03,13.20
2007,08,30,06,04,13.20
2007,08,30,06,05,13.20
2007,08,30,06,06,13.10
2007,08,30,06,07,13.10
2007,08,30,06,08,13.10
2007,08,30,06,09,13.10
2007,08,30,06,10,13.10
2007,08,30,06,11,13.10
2007,08,30,06,12,13.10
2007,08,30,06,13,13.10
2007,08,30,06,14,13.10
2007,08,30,06,15,13.00
2007,08,30,06,16,13.00
2007,08,30,06,17,13.00
2007,08,30,06,18,13.00
2007,08,30,06,19,13.00
2007,08,30,06,20,13.00
2007,08,30,06,21,13.00
2007,08,30,06,22,13.00
2007,08,30,06,23,13.00
2007,08,30,06,24,13.00
2007,08,30,06,25,13.00
2007,08,30,06,26,13.00
2007,08,30,06,27,13.00
2007,08,30,06,28,13.00
2007,08,30,06,29,13.00
2007,08,30,06,30,13.00
2007,08,30,06,31,13.00
2007,08,30,06,32,13.00
2007,08,30,06,33,13.00
2007,08,30,06,34,13.00
2007,08,30,06,35,13.00
2007,08,30,06,36,13.00
2007,08,30,06,37,13.00
2007,08,30,06,38,13.00
2007,08,30,06,39,13.00
2007,08,30,06,40,12.90
2007,08,30,06,41,13.00
2007,08,30,06,42,13.00
2007,08,30,06,43,13.00
2007,08,30,06,44,13.00
2007,08,30,06,45,13.00
2007,08,30,06,46,12.90
2007,08,30,06,47,12.90
2007,08,30,06,48,12.90
2007,08,30,06,49,12.90
2007,08,30,06,50,12.90
2007,08,30,06,51,13.00
2007,08,30,06,52,13.00
2007,08,30,06,53,13.00
2007,08,30,06,54,13.00
2007,08,30,06,55,13.00
2007,08,30,06,56,13.00
2007,08,30,06,57,13.00
2007,08,30,06,58,13.00
2007,08,30,06,59,13.00
2007,08,30,07,00,13.00
2007,08,30,07,01,13.00
2007,08,30,07,02,13.00
2007,08,30,07,03,13.00
2007,08,30,07,04,13.00
2007,08,30,07,05,13.00
2007,08,30,07,06,13.00
2007,08,30,07,07,13.10
2007,08,30,07,08,13.10
2007,08,30,07,09,13.10
2007,08,30,07,10,13.20
2007,08,30,07,11,13.20
2007,08,30,07,12,13.30
2007,08,30,07,13,13.30
2007,08,30,07,14,13.30
2007,08,30,07,15,13.40
2007,08,30,07,16,13.40
2007,08,30,07,17,13.40
2007,08,30,07,18,13.50
2007,08,30,07,19,13.60
2007,08,30,07,20,13.60
2007,08,30,07,21,13.60
2007,08,30,07,22,13.60
2007,08,30,07,23,13.70
2007,08,30,07,24,13.70
2007,08,30,07,25,13.70
2007,08,30,07,26,13.70
2007,08,30,07,27,13.70
2007,08,30,07,28,13.70
2007,08,30,07,29,13.80
2007,08,30,07,30,13.80
2007,08,30,07,31,13.90
2007,08,30,07,32,13.90
2007,08,30,07,33,14.00
2007,08,30,07,34,14.00
2007,08,30,07,35,14.10
2007,08,30,07,36,14.20
2007,08,30,07,37,14.20
2007,08,30,07,38,14.30
2007,08,30,07,39,14.40
2007,08,30,07,40,14.50
2007,08,30,07,41,14.60
2007,08,30,07,42,14.70
2007,08,30,07,43,14.80
2007,08,30,07,44,14.90
2007,08,30,07,45,15.00
2007,08,30,07,46,15.00
2007,08,30,07,47,15.10
2007,08,30,07,48,15.20
2007,08,30,07,49,15.30
2007,08,30,07,50,15.40
2007,08,30,07,51,15.50
2007,08,30,07,52,15.60
2007,08,30,07,53,15.70
2007,08,30,07,54,15.80
2007,08,30,07,55,15.90
2007,08,30,07,56,16.10
2007,08,30,07,57,16.10
2007,08,30,07,58,16.20
2007,08,30,07,59,16.30
2007,08,30,08,00,16.40
2007,08,30,08,01,16.50
2007,08,30,08,02,16.60
2007,08,30,08,03,16.70
2007,08,30,08,04,16.90
2007,08,30,08,05,17.00
2007,08,30,08,06,17.10
2007,08,30,08,07,17.20
2007,08,30,08,08,17.30
2007,08,30,08,09,17.40
2007,08,30,08,10,17.50
2007,08,30,08,11,17.50
2007,08,30,08,12,17.60
2007,08,30,08,13,17.70
2007,08,30,08,14,17.80
2007,08,30,08,15,17.90
2007,08,30,08,16,17.90
2007,08,30,08,17,18.00
2007,08,30,08,18,18.10
2007,08,30,08,19,18.20
2007,08,30,08,20,18.20
2007,08,30,08,21,18.30
2007,08,30,08,22,18.30
2007,08,30,08,23,18.40
2007,08,30,08,24,18.40
2007,08,30,08,25,18.40
2007,08,30,08,26,18.50
2007,08,30,08,27,18.50
2007,08,30,08,28,18.60
2007,08,30,08,29,18.60
2007,08,30,08,30,18.70
2007,08,30,08,31,18.70
2007,08,30,08,32,18.80
2007,08,30,08,33,18.80
2007,08,30,08,34,18.80
2007,08,30,08,35,18.90
2007,08,30,08,36,18.90
2007,08,30,08,37,18.90
2007,08,30,08,38,18.90
2007,08,30,08,39,19.10
2007,08,30,08,40,19.10
2007,08,30,08,41,19.10
2007,08,30,08,42,19.20
2007,08,30,08,43,19.30
2007,08,30,08,44,19.40
2007,08,30,08,45,19.50
2007,08,30,08,46,19.60
2007,08,30,08,47,19.70
2007,08,30,08,48,19.80
2007,08,30,08,49,19.90
2007,08,30,08,50,20.10
2007,08,30,08,51,20.20
2007,08,30,08,52,20.20
2007,08,30,08,53,20.20
2007,08,30,08,54,20.30
2007,08,30,08,55,20.30
2007,08,30,08,56,20.40
2007,08,30,08,57,20.50
2007,08,30,08,58,20.50
2007,08,30,08,59,20.60
2007,08,30,09,00,20.60
2007,08,30,09,01,20.70
2007,08,30,09,02,20.70
2007,08,30,09,03,20.70
2007,08,30,09,04,20.80
2007,08,30,09,05,20.80
2007,08,30,09,06,20.90
2007,08,30,09,07,21.00
2007,08,30,09,08,21.10
2007,08,30,09,09,21.10
2007,08,30,09,10,21.20
2007,08,30,09,11,21.20
2007,08,30,09,12,21.30
2007,08,30,09,13,21.30
2007,08,30,09,14,21.30
2007,08,30,09,15,21.30
2007,08,30,09,16,21.40
2007,08,30,09,17,21.50
2007,08,30,09,18,21.60
2007,08,30,09,19,21.60
2007,08,30,09,20,21.60
2007,08,30,09,21,21.60
2007,08,30,09,22,21.60
2007,08,30,09,23,21.60
2007,08,30,09,24,21.60
2007,08,30,09,25,21.60
2007,08,30,09,26,21.60
2007,08,30,09,27,21.60
2007,08,30,09,28,21.60
2007,08,30,09,29,21.60
2007,08,30,09,30,21.40
2007,08,30,09,31,21.30
2007,08,30,09,32,21.30
2007,08,30,09,33,21.30
2007,08,30,09,34,21.30
2007,08,30,09,35,21.20
2007,08,30,09,36,21.20
2007,08,30,09,37,21.30
2007,08,30,09,38,21.30
2007,08,30,09,39,21.30
2007,08,30,09,40,21.20
2007,08,30,09,41,21.20
2007,08,30,09,42,21.20
2007,08,30,09,43,21.10
2007,08,30,09,44,21.10
2007,08,30,09,45,21.00
2007,08,30,09,46,21.00
2007,08,30,09,47,20.90
2007,08,30,09,48,20.90
2007,08,30,09,49,21.00
2007,08,30,09,50,21.00
2007,08,30,09,51,21.10
2007,08,30,09,52,21.20
2007,08,30,09,53,21.20
2007,08,30,09,54,21.30
2007,08,30,09,55,21.40
2007,08,30,09,56,21.50
2007,08,30,09,57,21.60
2007,08,30,09,58,21.60
2007,08,30,09,59,21.60
2007,08,30,10,00,21.60
2007,08,30,10,01,21.50
2007,08,30,10,02,21.30
2007,08,30,10,03,21.30
2007,08,30,10,04,21.30
2007,08,30,10,05,21.20
2007,08,30,10,06,21.10
2007,08,30,10,07,21.00
2007,08,30,10,08,20.90
2007,08,30,10,09,20.90
2007,08,30,10,10,21.00
2007,08,30,10,11,21.10
2007,08,30,10,12,21.30
2007,08,30,10,13,21.50
2007,08,30,10,14,21.60
2007,08,30,10,15,21.70
2007,08,30,10,16,21.80
2007,08,30,10,17,22.00
2007,08,30,10,18,22.10
2007,08,30,10,19,22.30
2007,08,30,10,20,22.40
2007,08,30,10,21,22.60
2007,08,30,10,22,22.60
2007,08,30,10,23,22.60
2007,08,30,10,24,22.70
2007,08,30,10,25,22.80
2007,08,30,10,26,22.90
2007,08,30,10,27,23.00
2007,08,30,10,28,23.10
2007,08,30,10,29,23.20
2007,08,30,10,30,23.30
2007,08,30,10,31,23.30
2007,08,30,10,32,23.30
2007,08,30,10,33,23.30
2007,08,30,10,34,23.30
2007,08,30,10,35,23.30
2007,08,30,10,36,23.30
2007,08,30,10,37,23.40
2007,08,30,10,38,23.50
2007,08,30,10,39,23.60
2007,08,30,10,40,23.70
2007,08,30,10,41,23.70
2007,08,30,10,42,23.70
2007,08,30,10,43,23.70
2007,08,30,10,44,23.70
2007,08,30,10,45,23.60
2007,08,30,10,46,23.60
2007,08,30,10,47,23.70
2007,08,30,10,48,23.60
2007,08,30,10,49,23.60
2007,08,30,10,50,23.60
2007,08,30,10,51,23.40
2007,08,30,10,52,23.50
2007,08,30,10,53,23.60
2007,08,30,10,54,23.70
2007,08,30,10,55,23.70
2007,08,30,10,56,23.80
2007,08,30,10,57,23.80
2007,08,30,10,58,23.80
2007,08,30,10,59,23.80
2007,08,30,11,00,23.70
2007,08,30,11,01,23.70
2007,08,30,11,02,23.70
2007,08,30,11,03,23.80
2007,08,30,11,04,23.90
2007,08,30,11,05,23.90
2007,08,30,11,06,24.10
2007,08,30,11,07,24.10
2007,08,30,11,08,24.00
2007,08,30,11,09,23.90
2007,08,30,11,10,23.70
2007,08,30,11,11,23.70
2007,08,30,11,12,23.70
2007,08,30,11,13,23.60
2007,08,30,11,14,23.60
2007,08,30,11,15,23.50
2007,08,30,11,16,23.50
2007,08,30,11,17,23.60
2007,08,30,11,18,23.70
2007,08,30,11,19,23.70
2007,08,30,11,20,23.70
2007,08,30,11,21,23.70
2007,08,30,11,22,23.70
2007,08,30,11,23,23.80
2007,08,30,11,24,23.80
2007,08,30,11,25,23.90
2007,08,30,11,26,23.90
2007,08,30,11,27,24.10
2007,08,30,11,28,24.10
2007,08,30,11,29,24.10
2007,08,30,11,30,23.90
2007,08,30,11,31,23.80
2007,08,30,11,32,23.90
2007,08,30,11,33,24.00
2007,08,30,11,34,24.10
2007,08,30,11,35,24.10
2007,08,30,11,36,24.20
2007,08,30,11,37,24.30
2007,08,30,11,38,24.30
2007,08,30,11,39,24.30
2007,08,30,11,40,24.30
2007,08,30,11,41,24.30
2007,08,30,11,42,24.30
2007,08,30,11,43,24.40
2007,08,30,11,44,24.50
2007,08,30,11,45,24.50
2007,08,30,11,46,24.60
2007,08,30,11,47,24.70
2007,08,30,11,48,24.80
2007,08,30,11,49,24.90
2007,08,30,11,50,25.20
2007,08,30,11,51,25.30
2007,08,30,11,52,25.40
2007,08,30,11,53,25.50
2007,08,30,11,54,25.60
2007,08,30,11,55,25.70
2007,08,30,11,56,25.80
2007,08,30,11,57,25.80
2007,08,30,11,58,25.80
2007,08,30,11,59,25.90
2007,08,30,12,00,25.90
2007,08,30,12,01,25.80
2007,08,30,12,02,25.80
2007,08,30,12,03,25.70
2007,08,30,12,04,25.80
2007,08,30,12,05,25.90
2007,08,30,12,06,25.90
2007,08,30,12,07,26.00
2007,08,30,12,08,26.10
2007,08,30,12,09,26.20
2007,08,30,12,10,26.20
2007,08,30,12,11,26.20
2007,08,30,12,12,26.10
2007,08,30,12,13,26.00
2007,08,30,12,14,26.00
2007,08,30,12,15,26.00
2007,08,30,12,16,25.90
2007,08,30,12,17,25.80
2007,08,30,12,18,25.70
2007,08,30,12,19,25.60
2007,08,30,12,20,25.60
2007,08,30,12,21,25.60
2007,08,30,12,22,25.50
2007,08,30,12,23,25.40
2007,08,30,12,24,25.40
2007,08,30,12,25,25.30
2007,08,30,12,26,25.30
2007,08,30,12,27,25.40
2007,08,30,12,28,25.40
2007,08,30,12,29,25.40
2007,08,30,12,30,25.50
2007,08,30,12,31,25.50
2007,08,30,12,32,25.50
2007,08,30,12,33,25.60
2007,08,30,12,34,25.60
2007,08,30,12,35,25.60
2007,08,30,12,36,25.60
2007,08,30,12,37,25.70
2007,08,30,12,38,25.60
2007,08,30,12,39,25.60
2007,08,30,12,40,25.60
2007,08,30,12,41,25.70
2007,08,30,12,42,25.70
2007,08,30,12,43,25.70
2007,08,30,12,44,25.70
2007,08,30,12,45,25.80
2007,08,30,12,46,25.90
2007,08,30,12,47,25.90
2007,08,30,12,48,25.90
2007,08,30,12,49,25.80
2007,08,30,12,50,25.80
2007,08,30,12,51,25.90
2007,08,30,12,52,25.90
2007,08,30,12,53,25.90
2007,08,30,12,54,26.10
2007,08,30,12,55,26.20
2007,08,30,12,56,26.20
2007,08,30,12,57,26.20
2007,08,30,12,58,26.20
2007,08,30,12,59,26.20
2007,08,30,13,00,26.20
2007,08,30,13,01,26.30
2007,08,30,13,02,26.20
2007,08,30,13,03,26.20
2007,08,30,13,04,26.20
2007,08,30,13,05,26.10
2007,08,30,13,06,26.00
2007,08,30,13,07,26.00
2007,08,30,13,08,25.90
2007,08,30,13,09,25.90
2007,08,30,13,10,25.90
2007,08,30,13,11,25.90
2007,08,30,13,12,25.90
2007,08,30,13,13,26.00
2007,08,30,13,14,26.10
2007,08,30,13,15,26.10
2007,08,30,13,16,26.20
2007,08,30,13,17,26.20
2007,08,30,13,18,26.20
2007,08,30,13,19,26.30
2007,08,30,13,20,26.30
2007,08,30,13,21,26.20
2007,08,30,13,22,26.30
2007,08,30,13,23,26.30
2007,08,30,13,24,26.40
2007,08,30,13,25,26.50
2007,08,30,13,26,26.60
2007,08,30,13,27,26.60
2007,08,30,13,28,26.70
2007,08,30,13,29,26.70
2007,08,30,13,30,26.80
2007,08,30,13,31,26.70
2007,08,30,13,32,26.60
2007,08,30,13,33,26.60
2007,08,30,13,34,26.60
2007,08,30,13,35,26.60
2007,08,30,13,36,26.40
2007,08,30,13,37,26.40
2007,08,30,13,38,26.30
2007,08,30,13,39,26.30
2007,08,30,13,40,26.20
2007,08,30,13,41,26.20
2007,08,30,13,42,26.10
2007,08,30,13,43,26.00
2007,08,30,13,44,25.90
2007,08,30,13,45,25.80
2007,08,30,13,46,25.70
2007,08,30,13,47,25.70
2007,08,30,13,48,25.80
2007,08,30,13,49,25.90
2007,08,30,13,50,25.90
2007,08,30,13,51,26.00
2007,08,30,13,52,26.00
2007,08,30,13,53,26.10
2007,08,30,13,54,26.00
2007,08,30,13,55,26.00
2007,08,30,13,56,26.10
2007,08,30,13,57,26.00
2007,08,30,13,58,25.90
2007,08,30,13,59,25.90
2007,08,30,14,00,25.80
2007,08,30,14,01,25.80
2007,08,30,14,02,25.80
2007,08,30,14,03,25.50
2007,08,30,14,04,25.40
2007,08,30,14,05,25.30
2007,08,30,14,06,25.30
2007,08,30,14,07,25.30
2007,08,30,14,08,25.40
2007,08,30,14,09,25.40
2007,08,30,14,10,25.40
2007,08,30,14,11,25.30
2007,08,30,14,12,25.30
2007,08,30,14,13,25.30
2007,08,30,14,14,25.30
2007,08,30,14,15,25.30
2007,08,30,14,16,25.30
2007,08,30,14,17,25.40
2007,08,30,14,18,25.30
2007,08,30,14,19,25.30
2007,08,30,14,20,25.30
2007,08,30,14,21,25.40
2007,08,30,14,22,25.40
2007,08,30,14,23,25.50
2007,08,30,14,24,25.60
2007,08,30,14,25,25.60
2007,08,30,14,26,25.70
2007,08,30,14,27,25.70
2007,08,30,14,28,25.70
2007,08,30,14,29,25.70
2007,08,30,14,30,25.70
2007,08,30,14,31,25.70
2007,08,30,14,32,25.70
2007,08,30,14,33,25.80
2007,08,30,14,34,25.80
2007,08,30,14,35,25.80
2007,08,30,14,36,25.90
2007,08,30,14,37,25.90
2007,08,30,14,38,25.90
2007,08,30,14,39,25.80
2007,08,30,14,40,25.80
2007,08,30,14,41,25.80
2007,08,30,14,42,25.80
2007,08,30,14,43,25.80
2007,08,30,14,44,25.80
2007,08,30,14,45,25.80
2007,08,30,14,46,25.70
2007,08,30,14,47,25.70
2007,08,30,14,48,25.50
2007,08,30,14,49,25.40
2007,08,30,14,50,25.40
2007,08,30,14,51,25.30
2007,08,30,14,52,25.20
2007,08,30,14,53,25.10
2007,08,30,14,54,25.10
2007,08,30,14,55,25.10
2007,08,30,14,56,25.10
2007,08,30,14,57,25.20
2007,08,30,14,58,25.20
2007,08,30,14,59,25.30
2007,08,30,15,00,25.30
2007,08,30,15,01,25.30
2007,08,30,15,02,25.30
2007,08,30,15,03,25.30
2007,08,30,15,04,25.30
2007,08,30,15,05,25.40
2007,08,30,15,06,25.40
2007,08,30,15,07,25.40
2007,08,30,15,08,25.50
2007,08,30,15,09,25.70
2007,08,30,15,10,25.70
2007,08,30,15,11,25.80
2007,08,30,15,12,25.90
2007,08,30,15,13,25.80
2007,08,30,15,14,25.70
2007,08,30,15,15,25.50
2007,08,30,15,16,25.40
2007,08,30,15,17,25.40
2007,08,30,15,18,25.30
2007,08,30,15,19,25.20
2007,08,30,15,20,25.20
2007,08,30,15,21,25.20
2007,08,30,15,22,25.20
2007,08,30,15,23,25.10
2007,08,30,15,24,25.10
2007,08,30,15,25,25.20
2007,08,30,15,26,25.20
2007,08,30,15,27,25.20
2007,08,30,15,28,25.20
2007,08,30,15,29,25.20
2007,08,30,15,30,25.30
2007,08,30,15,31,25.30
2007,08,30,15,32,25.30
2007,08,30,15,33,25.30
2007,08,30,15,34,25.20
2007,08,30,15,35,25.10
2007,08,30,15,36,25.00
2007,08,30,15,37,25.00
2007,08,30,15,38,24.90
2007,08,30,15,39,24.80
2007,08,30,15,40,24.80
2007,08,30,15,41,24.70
2007,08,30,15,42,24.70
2007,08,30,15,43,24.60
2007,08,30,15,44,24.60
2007,08,30,15,45,24.70
2007,08,30,15,46,24.70
2007,08,30,15,47,24.70
2007,08,30,15,48,24.60
2007,08,30,15,49,24.60
2007,08,30,15,50,24.60
2007,08,30,15,51,24.60
2007,08,30,15,52,24.70
2007,08,30,15,53,24.70
2007,08,30,15,54,24.60
2007,08,30,15,55,24.50
2007,08,30,15,56,24.50
2007,08,30,15,57,24.40
2007,08,30,15,58,24.30
2007,08,30,15,59,24.30
2007,08,30,16,00,24.30
2007,08,30,16,01,24.30
2007,08,30,16,02,24.30
2007,08,30,16,03,24.30
2007,08,30,16,04,24.30
2007,08,30,16,05,24.30
2007,08,30,16,06,24.20
2007,08,30,16,07,24.20
2007,08,30,16,08,24.20
2007,08,30,16,09,24.10
2007,08,30,16,10,24.10
2007,08,30,16,11,24.20
2007,08,30,16,12,24.20
2007,08,30,16,13,24.30
2007,08,30,16,14,24.30
2007,08,30,16,15,24.30
2007,08,30,16,16,24.30
2007,08,30,16,17,24.30
2007,08,30,16,18,24.40
2007,08,30,16,19,24.40
2007,08,30,16,20,24.40
2007,08,30,16,21,24.40
2007,08,30,16,22,24.40
2007,08,30,16,23,24.40
2007,08,30,16,24,24.30
2007,08,30,16,25,24.20
2007,08,30,16,26,24.20
2007,08,30,16,27,24.20
2007,08,30,16,28,24.10
2007,08,30,16,29,24.10
2007,08,30,16,30,24.10
2007,08,30,16,31,24.10
2007,08,30,16,32,24.00
2007,08,30,16,33,23.90
2007,08,30,16,34,23.90
2007,08,30,16,35,23.90
2007,08,30,16,36,23.90
2007,08,30,16,37,23.90
2007,08,30,16,38,24.00
2007,08,30,16,39,24.10
2007,08,30,16,40,24.00
2007,08,30,16,41,23.90
2007,08,30,16,42,23.90
2007,08,30,16,43,23.80
2007,08,30,16,44,23.80
2007,08,30,16,45,23.70
2007,08,30,16,46,23.70
2007,08,30,16,47,23.70
2007,08,30,16,48,23.70
2007,08,30,16,49,23.70
2007,08,30,16,50,23.80
2007,08,30,16,51,23.80
2007,08,30,16,52,23.70
2007,08,30,16,53,23.70
2007,08,30,16,54,23.70
2007,08,30,16,55,23.60
2007,08,30,16,56,23.60
2007,08,30,16,57,23.60
2007,08,30,16,58,23.50
2007,08,30,16,59,23.40
2007,08,30,17,00,23.50
2007,08,30,17,01,23.40
2007,08,30,17,02,23.40
2007,08,30,17,03,23.30
2007,08,30,17,04,23.30
2007,08,30,17,05,23.30
2007,08,30,17,06,23.30
2007,08,30,17,07,23.30
2007,08,30,17,08,23.30
2007,08,30,17,09,23.30
2007,08,30,17,10,23.30
2007,08,30,17,11,23.30
2007,08,30,17,12,23.30
2007,08,30,17,13,23.30
2007,08,30,17,14,23.30
2007,08,30,17,15,23.20
2007,08,30,17,16,23.20
2007,08,30,17,17,23.20
2007,08,30,17,18,23.20
2007,08,30,17,19,23.20